Tracking 31080 objects as of 20-Jul-2025
HD Live streaming from Space Station
objects crossing your sky now

TIANHUI 1-04

Track TIANHUI 1-04 now!
10-day predictions


NORAD ID: 49049
Int'l Code: 2021-067A
Perigee: 502.0 km
Apogee: 503.3 km
Inclination: 97.3 °
Period: 94.5 minutes
Semi major axis: 6873 km
RCS: Unknown
Launch date: July 29, 2021
Source: People's Republic of China (PRC)
Launch site: Jiuquan Satellite Launch Center, China (JSC)
Your satellite tracking list
Your tracking list is empty




NASA's NSSDC Master Catalog

Two Line Element Set (TLE):
1 49049U 21067A   25201.03910009  .00004489  00000-0  19149-3 0  9996
2 49049  97.3198 273.2728 0000947 110.8812 249.2526 15.23413862220141
Source of the keplerian elements: AFSPC